Content
SEND FEEDBACK

Daily
Averages
Monthly
Summary
United States of America

ANN ARBOR, MICHIGAN


Home > North America > United States > Michigan
Elevation: 759 feet     Latitude: 42 17N     Longitude: 083 43W

WEATHER
 
SELECT A DAY
Number of Records: 206,948;   Date Range: 1/1/95 - 10/19/14
 
SHARE

PRINT THIS DATA

[ ← Previous Day ]
WEATHER ALMANAC - JUNE 14, 2013
[ Next Day → ]
[ °C ]   °F
Weather ElementAverageHighLow
Temperature67.1 °F77 °F (4:53 pm)53.1 °F (11:53 pm)
Dewpoint53.9 °F57 °F (1:53 am)50 °F (7:53 pm)
Humidity65 %93 % (11:53 pm)40 % (5:53 pm)
Barometer30.02 in30.07 in (10:53 am)29.94 in (2:53 am)
Wind Speed6.1 mph11.5 mph (10:53 am)
Weather ElementAverage
Visibility10 mi
Wind DirectionSSW (203 °)

Weather ElementTotal
Precipitation---
Growing Degree Days15.1 (Base 50)
Averaged from 23 records on June 14, 2013
WEATHER CONDITIONS BREAKOUT
WIND DIRECTION BREAKOUT
WEATHER BY HOUR - JUNE 14, 2013
[ °C ]   °F
Local TimeTemperatureDewpointHumidityBarometerVisibilityWind DirectionWind SpeedGust SpeedPrecipitationEventsConditions
1:53 AM64.0 °F57.0 °F78 %29.95 in10.0 miNorth (360°)6.9 mphMostly Cloudy
2:53 AM63.0 °F55.9 °F78 %29.94 in10.0 miNorth (350°)5.8 mphClear
3:53 AM61.0 °F55.9 °F83 %29.94 in10.0 miNorth (360°)8.1 mphClear
4:53 AM61.0 °F55.9 °F83 %29.96 in10.0 miNNW (340°)5.8 mphScattered Clouds
5:53 AM60.1 °F55.9 °F86 %29.97 in10.0 miNNW (340°)5.8 mphScattered Clouds
6:53 AM60.1 °F55.0 °F83 %29.99 in10.0 miNorth (360°)6.9 mphClear
7:53 AM62.1 °F53.1 °F72 %30.01 in10.0 miNorth (350°)9.2 mphClear
8:53 AM64.0 °F53.1 °F67 %30.03 in10.0 miNNE (20°)9.2 mphClear
9:53 AM66.9 °F54.0 °F63 %30.05 in10.0 miNorth (10°)9.2 mphClear
10:53 AM69.1 °F55.0 °F61 %30.07 in10.0 miNNW (340°)11.5 mphClear
11:53 AM71.1 °F55.0 °F57 %30.06 in10.0 miNNW (340°)9.2 mphClear
12:53 PM72.0 °F55.0 °F55 %30.07 in10.0 miNorth (360°)9.2 mphPartly Cloudy
1:53 PM73.9 °F55.0 °F52 %30.05 in10.0 miNorth (10°)9.2 mphClear
2:53 PM75.0 °F54.0 °F48 %30.05 in10.0 miNE (50°)8.1 mphClear
3:53 PM75.9 °F54.0 °F46 %30.03 in10.0 miNorth (10°)4.6 mphClear
4:53 PM77.0 °F54.0 °F45 %30.03 in10.0 miWNW (300°)8.1 mphPartly Cloudy
5:53 PM77.0 °F51.1 °F40 %30.04 in10.0 miNorth (360°)4.6 mphPartly Cloudy
6:53 PM75.9 °F52.0 °F43 %30.03 in10.0 miCalmScattered Clouds
7:53 PM73.9 °F50.0 °F43 %30.03 in10.0 miNorth (360°)5.8 mphClear
8:53 PM69.1 °F52.0 °F54 %30.03 in10.0 miNE (50°)3.5 mphClear
9:53 PM60.1 °F52.0 °F75 %30.05 in10.0 miCalmClear
10:53 PM57.0 °F54.0 °F89 %30.07 in10.0 miCalmClear
11:53 PM53.1 °F51.1 °F93 %30.06 in10.0 miCalmClear
Hourly data recorded from KARB, located miles away from Ann Arbor, Michigan







STORIES FROM OUR PARTNERS